Weather History for Calgary Springbank, AB

Change the Weather History Date:

Friday, August 3, 2012

  Actual Average Record
Temperature  
Mean Temperature 54 °F -  
Max Temperature 69 °F 68 °F 89 °F (2001)
Min Temperature 39 °F 41 °F 35 °F (2002)
Degree Days  
Heating Degree Days 11    
Growing Degree Days 4 (Base 50)    
Moisture  
Dew Point 48 °F    
Average Humidity 71    
Maximum Humidity 94    
Minimum Humidity 42    
Precipitation  
Precipitation 0.12 in - - ()
Sea Level Pressure  
Sea Level Pressure 30.15 in    
Wind  
Wind Speed 7 mph ()    
Max Wind Speed 13 mph    
Max Gust Speed -    
Visibility 11.8 miles    
Events Rain    
Averages and records for this station are not official NWS values.
T = Trace of Precipitation, MM = Missing Value Source: Averaged Metar Reports

Daily Weather History Graph

Daily Weather History Graph

Search for Another Location

Airport:

Trip Planner

Search our weather history database for the weather conditions in past years. The results will help you decide how hot, cold, wet, or windy it might be!

Date:

Astronomy

Aug. 03, 2012 Rise Set
Actual Time 6:06 AM MDT 9:19 PM MDT
Civil Twilight 5:27 AM MDT 9:58 PM MDT
Nautical Twilight 4:34 AM MDT 10:50 PM MDT
Astronomical Twilight 3:25 AM MDT 11:58 PM MDT
Moon 9:36 PM MDT (8/3) 8:14 AM MDT (8/3)
Length of Visible Light 16h 31m
Length of Day
15h 12m
Full, 97% of the Moon is Illuminated
Aug 3
Full
Aug 9
Last Quarter
Aug 17
New
Aug 24
First Quarter
Aug 31
Full

Hourly Weather History & Observations

Time (MDT) Temp. Windchill Dew Point Humidity Pressure Visibility Wind Dir Wind Speed Gust Speed Precip Events Conditions
5:00 AM 46.4 °F 43.5 °F 42.8 °F 87% 30.14 in 10.0 mi WNW 5.8 mph - N/A Rain Light Rain
6:00 AM 46 °F - 43 °F 87% 30.15 in 5 mi WNW 11.5 mph - - Rain Light Rain
6:00 AM 46.4 °F 41.1 °F 42.8 °F 87% 30.15 in 5.0 mi WNW 11.5 mph - N/A Rain Light Rain
7:00 AM 46.4 °F 43.5 °F 44.6 °F 93% 30.15 in 8.0 mi WNW 5.8 mph - N/A Rain Light Rain
8:00 AM 46.4 °F 42.4 °F 44.6 °F 93% 30.17 in 8.0 mi WNW 8.1 mph - N/A Rain Light Rain
10:00 AM 50.0 °F - 48.2 °F 94% 30.18 in 15.0 mi WNW 11.5 mph - N/A Rain Light Rain
10:42 AM - - - N/A% - 20.0 mi NW 12.7 mph - N/A   Overcast
11:07 AM - - - N/A% - 20.0 mi NW 11.5 mph - N/A   Overcast
12:00 PM 56 °F - 49 °F 71% 30.19 in 25 mi NW 10.4 mph - -   Partly Cloudy
12:00 PM 57.2 °F - 50.0 °F 77% 30.19 in 25.0 mi NW 9.2 mph - N/A   Mostly Cloudy
1:00 PM 59.0 °F - 53.6 °F 82% 30.18 in 25.0 mi WNW 8.1 mph - N/A   Mostly Cloudy
2:00 PM 59.0 °F - 50.0 °F 72% 30.18 in 25.0 mi WNW 10.4 mph - N/A   Mostly Cloudy
3:00 PM 62.6 °F - 51.8 °F 68% 30.15 in 25.0 mi North 4.6 mph - N/A   Mostly Cloudy
4:00 PM 64.4 °F - 50.0 °F 59% 30.14 in 25.0 mi NW 6.9 mph - N/A   Mostly Cloudy
5:00 PM 68.0 °F - 50.0 °F 52% 30.14 in 25.0 mi NW 6.9 mph - N/A   Mostly Cloudy
6:00 PM 67 °F - 49 °F 42% 30.12 in 28 mi NNE 6.9 mph - -   Partly Cloudy
6:00 PM 68.0 °F - 50.0 °F 52% 30.12 in 30.0 mi NNE 6.9 mph - N/A   Mostly Cloudy
7:00 PM 66.2 °F - 48.2 °F 52% 30.11 in 30.0 mi East 2.3 mph - N/A   Scattered Clouds
8:00 PM 64.4 °F - 50.0 °F 59% 30.12 in 30.0 mi East 4.6 mph - N/A   Partly Cloudy
9:00 PM 59.0 °F - 39.2 °F 48% 30.13 in 30.0 mi East 4.6 mph - N/A   Partly Cloudy
10:00 PM 55.4 °F - 50.0 °F 82% 30.14 in 15.0 mi SSE 6.9 mph - N/A   Scattered Clouds